Overview Statistics Trail Chart Weather Telemetry Raw packets
 

This is the latest recevied weather packets stored in our database for station/object SA7BGG-5. If no packets are shown the sender has not sent any weather packets the latest 10 day(s).

<< 53 54 55 56 57 58 59 >>
Time Temp. Humidity Pressure Rain* Wind** Luminosity Snow
1777459204 15.56° C 38% 1034 hPa - - - -
1777458903 15.56° C 38% 1034 hPa - - - -
1777458610 15.56° C 38% 1034 hPa - - - -
1777458302 16.11° C 41% 1034 hPa - - - -
1777458002 16.11° C 41% 1034 hPa - - - -
1777457702 15° C 40% 1034 hPa - - - -
1777457401 15° C 40% 1034 hPa - - - -
1777457101 15° C 41% 1034 hPa - - - -
1777456801 15° C 41% 1034 hPa - - - -
1777456500 14.44° C 42% 1034 hPa - - - -
1777456205 14.44° C 42% 1034 hPa - - - -
1777455904 13.89° C 44% 1034 hPa - - - -
1777455604 13.89° C 44% 1034 hPa - - - -
1777455304 13.33° C 45% 1034 hPa - - - -
1777455004 13.33° C 45% 1034 hPa - - - -
1777454703 13.33° C 43% 1034 hPa - - - -
1777454403 13.33° C 43% 1034 hPa - - - -
1777454102 13.33° C 44% 1034 hPa - - - -
1777453802 13.33° C 44% 1034 hPa - - - -
1777453502 13.33° C 42% 1034 hPa - - - -
1777453201 13.33° C 42% 1034 hPa - - - -
1777452901 12.78° C 44% 1035 hPa - - - -
1777452601 12.78° C 44% 1035 hPa - - - -
1777452300 12.22° C 46% 1035 hPa - - - -
1777452005 12.22° C 46% 1035 hPa - - - -

* Rain since midnight (hover to see other rain measurements)
** Current wind speed in m/s (hover to see current wind gust speed)